{"data":{"norad_id":43784,"intl_designator":"2018-099AC","name":"SNUGLITE","alt_names":[],"object_type":"PAYLOAD","status":"ACTIVE","operator":null,"country":"SKOR","launch_date":"2018-12-03","launch_site_code":"AFWTR","launch_vehicle":null,"mission":null,"orbit_class":"UNKNOWN","rcs_meters":null,"size_class":null,"mass_kg":null,"dimensions":null,"purposes":[],"wikipedia_slug":null,"has_3d_model":false,"image_url":null,"decayed_at":null,"tle_current":{"epoch":"2026-09-20T02:14:40.307712Z","epoch_age_seconds":90027,"freshness":"FRESH","line1":"1 43784U 18099AC  26263.09352208  .00007326  00000+0  26327-3 0  9991","line2":"2 43784  97.3771 316.5096 0001658 348.3480  11.7721 15.28939619427816","mean_motion":15.28939619,"eccentricity":0.0001658,"inclination_deg":97.3771,"raan_deg":316.5096,"arg_perigee_deg":348.348,"mean_anomaly_deg":11.7721,"bstar":0.00026327,"rev_number":42781,"period_min":94.1829214251,"perigee_km":477.84401472071,"apogee_km":480.1178350246,"semimajor_km":6857.1179248727,"source":"CELESTRAK","updated_at":"2026-09-20T09:00:14.404962Z"}}}